Location: Newark
(44.3100°N, 0.7769°W)
Time: 12:48:20
(UTC+00:00)

Envisat - Pass Details

Date: 23 November 2019
Orbit: 764 x 766 km, 98.1° (Epoch: 14 December)

Event Time Altitude Azimuth Distance (km) Brightness Sun altitude
Rises 18:06:20 0° 170° (S) 3,219 6.3 -17.0°
Reaches altitude 10° 18:08:38 10° 172° (S) 2,297 5.5 -17.4°
Maximum altitude 18:13:42 75° 257° (WSW) 798 3.2 -18.3°
Drops below altitude 10° 18:18:48 10° 343° (NNW) 2,312 5.6 -19.2°
Sets 18:21:08 0° 346° (NNW) 3,243 6.3 -19.6°
